Preview of NWS' New Version of Forecast
This preview is not operational and should not be used for support decisions.

Regional Weather Roundup (RWR)

Issued by National Weather Service (NWS)

                            
000
ASCA42 TJSJ 211610
RWRPR 
PUERTO RICO/U.S. VIRGIN ISLANDS HOURLY WEATHER ROUNDUP
NATIONAL WEATHER SERVICE SAN JUAN PR
1200 PM AST WED AUG 21 2019

PRZ001>002-007>008-010-211700-
PUERTO RICO
  
CITY           SKY/WX    TMP DP  RH WIND       PRES   REMARKS
SAN JUAN LMM   MOSUNNY   88  75  66 E17       30.04F HX  97           
AGUADILLA      MOSUNNY   90  75  62 E18       30.05F HX 100           
CEIBA          MOSUNNY   88  75  66 E12       30.06S HX  97           
$$

VIZ001>002-211700-
U.S. VIRGIN ISLANDS
  
CITY           SKY/WX    TMP DP  RH WIND       PRES   REMARKS
CHARLOTTE AMA  PTSUNNY   90  73  58 NE14G20   30.03F HX  98           
CHRISTIANSTED  MOSUNNY   90  75  62 E20G25    30.04F HX 100           
$$

HOURLY WEATHER ROUNDUP FOR THE NEWS MEDIA
  
CITY           SKY/WX    TMP DP  RH WIND       PRES   REMARKS
ORLANDO        FAIR      89  73  59 SE6       30.12F HX  97           
NEW YORK       PTSUNNY   81  76  84 SW12      29.95F                  
NEWARK         CLOUDY    83  70  64 SW18      29.94R                  
CHICAGO        PTSUNNY   81  69  67 W7        29.96R                  
HARTFORD       CLOUDY    78  73  84 S9        29.96F                  
BOSTON         CLOUDY    82  70  66 SE7       29.95F                  
DALLAS         MOSUNNY   90  69  50 SE5       30.04R HX  94           
PHILADELPHIA   PTSUNNY   85  71  63 SW16      29.95F HX  90           
LOS ANGELES    SUNNY     73  63  70 SW6       29.87S                  
WASHINGTON DC  FAIR      86  71  60 S6        29.96F HX  91